Regional Weather Roundup
Issued by NWS Austin/San Antonio, TX

Home | Current Version | Previous Version | Text Only | Print | Product List | Glossary On
Versions: 1 2 3 4 5 6 7 8 9 10 11 12 13 14 15 16 17 18 19 20 21 22 23 24 25 26 27 28 29 30 31 32 33 34 35 36 37 38 39 40 41 42 43 44 45 46 47 48 49 50
000
ASUS44 KEWX 191611
RWREWX
SOUTH TEXAS REGIONAL WEATHER ROUNDUP
NATIONAL WEATHER SERVICE AUSTIN/SAN ANTONIO TX
1100 AM CDT MON OCT 19 2020

NOTE: "FAIR" INDICATED FEW OR NO CLOUDS BELOW 12,000 FEET WITH NO
SIGNIFICANT WEATHER AND/OR OBSTRUCTIONS TO VISIBILITY.

* - THESE STATIONS ARE NOT NWS OR FAA STATIONS...AND ARE NOT SUBJECT
    TO NWS AND FAA QUALITY CONTROL.

TXZ171-172-183>190-191700-
TEXAS HILL COUNTRY AND EDWARDS PLATEAU

CITY           SKY/WX    TMP DP  RH WIND       PRES   REMARKS
JUNCTION       CLOUDY    68  54  60 E6        30.08S
*LLANO         CLOUDY    68  52  56 NW5       30.06F
BURNET         PTSUNNY   73  60  63 N6        30.08F
*HORSESHOE BAY CLOUDY    81  68  65 S7        30.06S
*LAGO VISTA    PTSUNNY   78  70  76 S7        30.07S
*KERRVILLE     CLOUDY    76  70  80 S12       30.07S
*FREDERICKSBRG CLOUDY    75  66  72 S8        30.07F
*ROCKSPRINGS   CLOUDY    72  66  83 S14       30.12S
*BOERNE        CLOUDY    73  70  88 S7        30.07F
*CASTROVILLE   PTSUNNY   83  69  62 S12       30.05S
HONDO          CLOUDY    80  67  64 S16       30.03S
*UVALDE        CLOUDY    78  70  77 SE9       30.05R
DEL RIO        CLOUDY    80  70  71 SE13G26   29.99S
*LAUGHLIN AFB  CLOUDY    77  69  76 SE13      30.00S
*SPOFFORD      CLOUDY   N/A N/A N/A SE12      29.96S
*EAGLE PASS    NOT AVBL
CARRIZO SPRGS  CLOUDY    79  70  73 SE10      30.00S
*FAITH RANCH   PTSUNNY   81  70  69 VRB5G13   30.01F
$$

TXZ173-191>194-202-209-217>225-228-191700-
CENTRAL AND SOUTH CENTRAL TEXAS

CITY           SKY/WX    TMP DP  RH WIND       PRES   REMARKS
GEORGETOWN     CLOUDY    75  64  68 N9        30.07S
*TAYLOR        PTSUNNY   78  72  81 S8        30.05S
AUSTIN/BERGSTM PTSUNNY   81  73  76 S9        30.04S
AUSTIN/MABRY   PTSUNNY   83  71  67 S8        30.05F
*PFLUGERVILLE  MOSUNNY   79  72  78 S7        30.05F
SAN MARCOS     PTSUNNY   81  74  79 SE8       30.05F
NEW BRAUNFELS  MOSUNNY   81  72  74 S8        30.03S
*RANDOLPH AFB  PTSUNNY   82  71  70 S10       30.03S
*SEGUIN        MOSUNNY   82  71  69 S10G20    30.07F
SAN ANTONIO    PTSUNNY   81  71  71 S12       30.04S
STINSON FIELD  PTSUNNY   80  71  74 S10       30.01S
*KELLY FIELD   PTSUNNY   83  71  66 SE12      30.02S
*PLEASANTON    MOSUNNY   84  73  69 SE9       30.03S HX  90
*KENEDY        MOSUNNY   85  73  67 SE13      30.02F HX  91
*LA GRANGE     MOSUNNY   84  76  78 S10       30.03S HX  93
*GIDDINGS      PTSUNNY   82  72  72 S6        30.06S
*GONZALES      CLOUDY    81  74  81 S5        30.04S
$$

TXZ163>164-176>182-195>201-210>213-226-227-235-191700-
SOUTHEAST TEXAS

CITY           SKY/WX    TMP DP  RH WIND       PRES   REMARKS
COLLEGE STN    MOSUNNY   82  73  74 S10       30.05S
*BRYAN         CLOUDY    79  73  81 S7        30.07S
*CALDWELL      PTSUNNY   80  74  83 S8        30.06S
*CROCKETT      NOT AVBL
*BRENHAM       PTSUNNY   82  75  78 S7        30.05F
HUNTSVILLE     PTSUNNY   82  72  71 S7        30.06S
CONROE         MOSUNNY   79  75  87 SE6       30.06F
HOUSTON BUSH   PTSUNNY   84  74  71 S10       30.05S HX  91
HOUSTON HOBBY  PTSUNNY   83  73  72 S13       30.04F
*HOUSTON SW AP RAIN      75  74  96 CALM      30.06S
PEARLAND       PTSUNNY   83  72  69 SE10      30.06F
HOUSTON HOOKS  PTSUNNY   83  73  72 S6        30.05S
ELLINGTON FLD  PTSUNNY   82  73  74 SE13      30.04F
SUGAR LAND     CLOUDY    84  75  74 SE14      30.04S HX  92
*HOUSTON EXEC  PTSUNNY   82  77  83 S7        30.06S HX  91
*CLEVELAND MUN CLOUDY    80  75  85 S5        30.07S HAZE
*WHARTON       PTSUNNY   81  76  84 SE8       30.04F
*COLUMBUS      PTSUNNY   82  75  80 S7        30.05F
*EAGLE LAKE    PTSUNNY   83  76  80 SE8       30.04F HX  90
$$

TXZ214>216-236>238-191700-
THE UPPER TEXAS COAST

CITY           SKY/WX    TMP DP  RH WIND       PRES   REMARKS
*ORANGE        CLOUDY    84  73  69 S8        30.10R
PORT ARTHUR    CLOUDY    82  74  76 S12       30.07S
GALVESTON      MOSUNNY   82  74  76 SE13      30.06S
ANGLETON       CLOUDY    83  74  74 S12       30.04S
*BAY CITY      MOSUNNY   82  76  81 SE10      30.03F HX  90
PALACIOS       MOSUNNY   84  76  76 S16       30.03R HX  93
$$

TXZ229>234-239>247-191700-
TEXAS COASTAL BEND AND RIO GRANDE PLAINS

CITY           SKY/WX    TMP DP  RH WIND       PRES   REMARKS
VICTORIA       MOSUNNY   84  75  74 S13       30.02F HX  92
*BEEVILLE      NOT AVBL
ROCKPORT       SUNNY     85  77  77 SE12      30.00S HX  95
*PORT ARANSAS  SUNNY     83  77  82 SE10      30.03S HX  92
*PORT LAVACA   LGT RAIN  82  76  82 S3        30.03R
*INGLESIDE     NOT AVBL
CORPUS CHRISTI MOSUNNY   84  75  74 S15       30.00F HX  92
CORPUS NAS     PTSUNNY   88  77  69 S14       30.00S HX 100
*ROBSTOWN      PTSUNNY   84  75  73 S10       30.01S HX  92
ALICE          PTSUNNY   83  75  77 S8        30.00F HX  90
KINGSVILLE NAS PTSUNNY   85  75  72 S10       30.00S HX  93
COTULLA        MOSUNNY   84  71  65 S8G20     30.00S
LAREDO         MOSUNNY   84  72  67 SE14      29.99S
$$

TXZ248>255-191700-
DEEP SOUTH TEXAS

CITY           SKY/WX    TMP DP  RH WIND       PRES   REMARKS
BROWNSVILLE    MOSUNNY   88  74  63 SE15      29.98S HX  96
PORT ISABEL      N/A    N/A N/A N/A MISG      29.99R
HARLINGEN      MOSUNNY   85  75  72 S14       29.98S HX  93
*HEBBRONVILLE  PTSUNNY   80  70  71 SE14G20   30.03S
MCALLEN        MOSUNNY   88  74  63 SE13      29.99S HX  96
*WESLACO       CLOUDY    86  72  64 S13       29.98  HX  92
FALFURRIAS     MOSUNNY   79  74  82 S9        30.00F
EDINBURG       MOSUNNY   81  67  63 S9        29.99S
*ZAPATA        SUNNY     87  70  57 SE9G18    30.00S HX  92
$$

TXZ213>215-236>238-242>244-246-247-251-254-255-191700-
CMAN STATIONS

STATION/POSITION TIME  TEMP    WIND        PRES    WAVE
                       AIR SEA DIR/SP/G            HT/PER
                 (UTC) (F)     (DEG/KT/KT) (MB)    (FT/S)
NORTH JETTY/GLS  1530   83 78  140/  7/  9 1016.8
EAGLE POINT      1530   78 75  140/  8/  9 1017.5
MORGANS POINT    1530   80 78  130/  9/ 12 1017.9
PORT O`CONNOR    1530   80 82  150/ 11/ 13 1016.3
MALAQUITE BEACH  1530   83     130/  7/  8   N/A
BAFFIN BAY       1530   82 81  130/ 10/ 12 1015.5
PORT ISABEL      1530   83 81  130/ 12/ 15 1017.5
$$




USA.gov is the U.S. government's official web portal to all federal, state and local government web resources and services.